• In Hungary
  • List of Countries
  • For 7 days
  • Water Temperature
  • Satellite Maps
  • Weather Map
  • News
  • Weather Widgets
  • user-avatar
    Login

    Hourly Weather Volodarskiy

    Today, 24 May, Thursday

    Time Temperature Precipitation Wind Pressure Humidity
    00:00 +17°C° 0 mm 3 mps 749 mmHg 64%
    01:00 +17°C° 0 mm 3 mps 749 mmHg 64%
    02:00 +17°C° 0 mm 3 mps 749 mmHg 65%
    03:00 +17°C° 0 mm 3 mps 748 mmHg 66%
    04:00 +17°C° 0 mm 4 mps 748 mmHg 67%
    05:00 +17°C° 0 mm 4 mps 748 mmHg 68%
    06:00 +18°C° 0 mm 4 mps 748 mmHg 69%
    07:00 +19°C° 0 mm 5 mps 748 mmHg 67%
    08:00 +20°C° 0 mm 6 mps 748 mmHg 66%
    09:00 +22°C° 0 mm 6 mps 748 mmHg 64%
    10:00 +22°C° 0.2 mm 6 mps 747 mmHg 66%
    11:00 +22°C° 0.2 mm 6 mps 747 mmHg 67%
    12:00 +22°C° 0.2 mm 6 mps 747 mmHg 68%
    13:00 +21°C° 0.8 mm 5 mps 747 mmHg 70%
    14:00 +21°C° 0.8 mm 5 mps 747 mmHg 71%
    15:00 +20°C° 0.8 mm 4 mps 746 mmHg 73%
    16:00 +20°C° 0 mm 4 mps 746 mmHg 75%
    17:00 +19°C° 0 mm 3 mps 746 mmHg 77%
    18:00 +19°C° 0 mm 3 mps 746 mmHg 80%
    19:00 +18°C° 0.1 mm 3 mps 746 mmHg 82%
    20:00 +17°C° 0.1 mm 2 mps 746 mmHg 84%
    21:00 +16°C° 0.1 mm 2 mps 745 mmHg 86%
    22:00 +16°C° 0.3 mm 2 mps 745 mmHg 88%
    23:00 +16°C° 0.3 mm 2 mps 745 mmHg 89%

    Tomorrow, 25 May, Friday

    Time Temperature Precipitation Wind Pressure Humidity
    00:00 +15°C° 0.3 mm 1 mps 745 mmHg 90%
    01:00 +15°C° 0.3 mm 2 mps 745 mmHg 91%
    02:00 +14°C° 0.3 mm 2 mps 745 mmHg 92%
    03:00 +14°C° 0.3 mm 2 mps 745 mmHg 93%
    04:00 +12°C° 0 mm 3 mps 745 mmHg 91%
    05:00 +12°C° 0 mm 3 mps 745 mmHg 90%
    06:00 +12°C° 0 mm 4 mps 745 mmHg 88%
    07:00 +13°C° 0 mm 4 mps 745 mmHg 79%
    08:00 +14°C° 0 mm 4 mps 745 mmHg 71%
    09:00 +15°C° 0 mm 4 mps 745 mmHg 62%
    10:00 +15°C° 0 mm 5 mps 745 mmHg 59%
    11:00 +15°C° 0 mm 5 mps 746 mmHg 56%
    12:00 +15°C° 0 mm 6 mps 746 mmHg 53%
    13:00 +14°C° 0 mm 6 mps 746 mmHg 52%
    14:00 +14°C° 0 mm 7 mps 746 mmHg 51%
    15:00 +14°C° 0 mm 7 mps 747 mmHg 51%
    16:00 +12°C° 0 mm 7 mps 747 mmHg 53%
    17:00 +11°C° 0 mm 6 mps 747 mmHg 54%
    18:00 +10°C° 0 mm 6 mps 748 mmHg 56%
    19:00 +9°C° 0 mm 6 mps 748 mmHg 54%
    20:00 +8°C° 0 mm 5 mps 749 mmHg 53%
    21:00 +7°C° 0 mm 5 mps 749 mmHg 51%
    22:00 +6°C° 0 mm 5 mps 750 mmHg 53%
    23:00 +6°C° 0 mm 5 mps 750 mmHg 55%

    Day after tomorrow, 26 May, Saturday

    Time Temperature Precipitation Wind Pressure Humidity
    00:00 +5°C° 0 mm 5 mps 751 mmHg 56%
    01:00 +5°C° 0 mm 5 mps 751 mmHg 57%
    02:00 +3°C° 0 mm 5 mps 752 mmHg 57%
    03:00 +3°C° 0 mm 5 mps 752 mmHg 58%
    04:00 +3°C° 0 mm 5 mps 753 mmHg 57%
    05:00 +4°C° 0 mm 6 mps 753 mmHg 56%
    06:00 +4°C° 0 mm 6 mps 754 mmHg 54%
    07:00 +5°C° 0 mm 6 mps 754 mmHg 52%
    08:00 +6°C° 0 mm 7 mps 754 mmHg 49%
    09:00 +8°C° 0 mm 7 mps 755 mmHg 46%
    10:00 +9°C° 0 mm 6 mps 755 mmHg 45%
    11:00 +11°C° 0 mm 6 mps 755 mmHg 43%
    12:00 +13°C° 0 mm 6 mps 755 mmHg 42%
    13:00 +13°C° 0 mm 6 mps 755 mmHg 41%
    14:00 +14°C° 0 mm 5 mps 755 mmHg 41%
    15:00 +14°C° 0 mm 5 mps 755 mmHg 41%
    16:00 +14°C° 0 mm 4 mps 755 mmHg 46%
    17:00 +14°C° 0 mm 3 mps 755 mmHg 52%
    18:00 +15°C° 0 mm 2 mps 755 mmHg 58%
    19:00 +13°C° 0 mm 2 mps 755 mmHg 61%
    20:00 +10°C° 0 mm 2 mps 755 mmHg 64%
    21:00 +9°C° 0 mm 2 mps 755 mmHg 67%
    22:00 +9°C° 0 mm 3 mps 755 mmHg 65%
    23:00 +10°C° 0 mm 3 mps 755 mmHg 62%

    27 May, Sunday

    Time Temperature Precipitation Wind Pressure Humidity
    00:00 +10°C° 0 mm 4 mps 755 mmHg 59%
    01:00 +10°C° 0 mm 4 mps 754 mmHg 60%
    02:00 +9°C° 0 mm 5 mps 754 mmHg 61%
    03:00 +9°C° 0 mm 5 mps 754 mmHg 62%
    04:00 +9°C° 0 mm 5 mps 754 mmHg 65%
    05:00 +9°C° 0 mm 6 mps 753 mmHg 68%
    06:00 +10°C° 0 mm 6 mps 753 mmHg 70%
    07:00 +12°C° 0 mm 7 mps 753 mmHg 68%
    08:00 +14°C° 0 mm 7 mps 752 mmHg 65%
    09:00 +16°C° 0 mm 8 mps 752 mmHg 63%
    10:00 +17°C° 0 mm 8 mps 752 mmHg 61%
    11:00 +18°C° 0 mm 9 mps 751 mmHg 59%
    12:00 +21°C° 0 mm 9 mps 751 mmHg 57%
    13:00 +21°C° 0.1 mm 9 mps 750 mmHg 57%
    14:00 +21°C° 0.1 mm 9 mps 750 mmHg 58%
    15:00 +21°C° 0.1 mm 9 mps 749 mmHg 59%
    16:00 +19°C° 0 mm 9 mps 749 mmHg 62%
    17:00 +18°C° 0 mm 8 mps 748 mmHg 65%
    18:00 +18°C° 0 mm 7 mps 748 mmHg 67%
    19:00 +17°C° 0.1 mm 7 mps 747 mmHg 69%
    20:00 +16°C° 0.1 mm 7 mps 747 mmHg 70%
    21:00 +15°C° 0.1 mm 7 mps 747 mmHg 71%
    22:00 +14°C° 0.6 mm 6 mps 747 mmHg 77%
    23:00 +13°C° 0.6 mm 5 mps 747 mmHg 82%

    28 May, Monday

    Time Temperature Precipitation Wind Pressure Humidity
    00:00 +12°C° 0.6 mm 4 mps 747 mmHg 88%
    01:00 +11°C° 1 mm 4 mps 747 mmHg 89%
    02:00 +10°C° 1 mm 4 mps 747 mmHg 90%
    03:00 +10°C° 1 mm 4 mps 747 mmHg 91%
    04:00 +10°C° 0 mm 4 mps 747 mmHg 86%
    05:00 +10°C° 0 mm 4 mps 748 mmHg 82%
    06:00 +9°C° 0 mm 5 mps 748 mmHg 77%
    07:00 +10°C° 0 mm 5 mps 748 mmHg 67%
    08:00 +11°C° 0 mm 6 mps 748 mmHg 58%
    09:00 +13°C° 0 mm 6 mps 749 mmHg 48%
    10:00 +12°C° 0.1 mm 7 mps 749 mmHg 49%
    11:00 +12°C° 0.1 mm 7 mps 749 mmHg 50%
    12:00 +12°C° 0.1 mm 7 mps 749 mmHg 50%
    13:00 +11°C° 0.2 mm 8 mps 749 mmHg 49%
    14:00 +11°C° 0.2 mm 8 mps 749 mmHg 48%
    15:00 +11°C° 0.2 mm 8 mps 749 mmHg 46%
    16:00 +10°C° 0 mm 7 mps 749 mmHg 50%
    17:00 +10°C° 0 mm 6 mps 750 mmHg 54%
    18:00 +9°C° 0 mm 6 mps 750 mmHg 58%
    19:00 +7°C° 0 mm 4 mps 750 mmHg 60%
    20:00 +7°C° 0 mm 3 mps 750 mmHg 63%
    21:00 +6°C° 0 mm 2 mps 751 mmHg 65%
    22:00 +5°C° 0 mm 2 mps 751 mmHg 67%
    23:00 +5°C° 0 mm 2 mps 750 mmHg 68%

    29 May, Tuesday

    Time Temperature Precipitation Wind Pressure Humidity
    00:00 +5°C° 0 mm 2 mps 750 mmHg 69%
    01:00 +4°C° 0 mm 3 mps 750 mmHg 69%
    02:00 +4°C° 0 mm 3 mps 750 mmHg 69%
    03:00 +5°C° 0 mm 3 mps 750 mmHg 69%
    04:00 +6°C° 0 mm 4 mps 749 mmHg 70%
    05:00 +7°C° 0 mm 4 mps 749 mmHg 70%
    06:00 +8°C° 0 mm 5 mps 749 mmHg 71%
    07:00 +9°C° 0 mm 5 mps 748 mmHg 68%
    08:00 +10°C° 0 mm 6 mps 748 mmHg 64%
    09:00 +13°C° 0 mm 6 mps 747 mmHg 61%
    10:00 +12°C° 0.1 mm 7 mps 747 mmHg 60%
    11:00 +13°C° 0.1 mm 8 mps 746 mmHg 59%
    12:00 +15°C° 0.1 mm 8 mps 746 mmHg 58%
    13:00 +15°C° 0.1 mm 8 mps 746 mmHg 58%
    14:00 +15°C° 0.1 mm 8 mps 746 mmHg 59%
    15:00 +15°C° 0.1 mm 8 mps 746 mmHg 59%
    16:00 +15°C° 0.1 mm 7 mps 745 mmHg 62%
    17:00 +15°C° 0.1 mm 5 mps 745 mmHg 66%
    18:00 +14°C° 0.1 mm 4 mps 745 mmHg 70%
    19:00 +13°C° 0 mm 4 mps 744 mmHg 73%
    20:00 +12°C° 0 mm 3 mps 744 mmHg 76%
    21:00 +10°C° 0 mm 3 mps 743 mmHg 79%
    22:00 +11°C° 0.3 mm 4 mps 742 mmHg 80%
    23:00 +11°C° 0.3 mm 6 mps 741 mmHg 82%
    Show more